Powrót do katalogu

COSMOS 339

AktywnyMilitariaLEO
NORAD 4386·PAYLOAD·🇷🇺 Russia

Wystrzelony Apr 25, 1970 z Plesetsk Cosmodrome

Loading…

Następne Przeloty (najbliższe 24 godziny)

TLE

ŚwieżeSource: Space-Track

Epoka: Sep 14, 2026, 08:21 UTC

1 04386U 70036D   26257.34797424 -.00000018  00000-0 -16005-4 0  9996
2 04386  74.0317  21.4385 0015344  16.2989  13.0439 12.51877350576568

Śledź COSMOS 339 w czasie rzeczywistym z AllMySat

Download on the App Store